Location: Unspecified
(44.4377°N, 88.0525°W)
Time: 18:56:55
(UTC-05:00)

Cosmos 2058 - Visible Passes

Search period start: 21 October 2014 00:00
Search period end: 31 October 2014 00:00
Orbit: 571 x 592 km, 82.5° (Epoch: 21 October)

Date Brightness Start Highest point End Pass type
(mag) Time Alt. Az. Time Alt. Az. Time Alt. Az.
21 Oct 3.9 05:31:45 10° SSE 05:35:45 48° E 05:39:49 10° NNE visible
22 Oct 3.2 05:37:11 10° S 05:41:19 70° E 05:45:31 10° NNE visible
23 Oct 2.8 05:42:43 10° S 05:46:53 83° W 05:51:08 10° N visible
24 Oct 6.1 04:14:19 10° ESE 04:15:58 12° E 04:17:38 10° ENE visible
24 Oct 2.9 05:48:22 10° SSW 05:52:29 59° W 05:56:40 10° N visible
25 Oct 5.7 04:18:42 10° SE 04:21:23 17° E 04:24:06 10° NE visible
25 Oct 3.3 05:54:09 10° SSW 05:58:06 41° WNW 06:02:08 10° N visible
26 Oct 5.2 04:25:19 19° ESE 04:26:50 23° E 04:30:10 10° NE visible
26 Oct 3.7 06:01:49 21° WSW 06:03:45 30° WNW 06:07:31 10° NNW visible
27 Oct 4.7 04:32:36 31° E 04:32:36 31° E 04:36:02 10° NNE visible
27 Oct 4.1 06:09:04 22° W 06:09:25 22° WNW 06:12:47 10° NNW visible
28 Oct 4.7 04:39:25 29° NE 04:39:25 29° NE 04:41:48 10° NNE visible
28 Oct 4.6 06:15:51 16° NW 06:15:51 16° NW 06:17:53 10° NNW visible
29 Oct 5.0 04:45:57 21° NNE 04:45:57 21° NNE 04:47:28 10° NNE visible
29 Oct 5.1 06:22:23 11° NW 06:22:23 11° NW 06:22:39 10° NW visible
30 Oct 5.3 04:52:18 15° N 04:52:18 15° N 04:53:03 10° N visible
